Flag for Canada Weather past 2 weeks in Thunder Bay, Ontario, Canada

Now
59 °F

Fog.


Feels Like: 59 °F
Forecast: 57 / 70 °F
Wind: 2 mph from North

Location: Thunder Bay

Current Time: Jul 26, 2014 at 11:14:33 AM

Latest Report: Jul 26, 2014 at 10:00 AM


Visibility: 1 mi

Pressure: 29.72 "Hg

Humidity: 100%

Dew point: 59 °F

Location of Thunder BayLocation

Historic Weather in Thunder Bay — Graph

°F

Thunder Bay temperature yesterday

Maximum temperature yesterday: 70 °F (at 11:00 AM)
Minimum temperature yesterday: 50 °F (at 6:00 AM)
Average temperature yesterday: 61 °F

Past Weeks' High & Low Weather Summary

 TemperatureHumidityPressure
High90 °F (Jul 21, 3:00 PM)100% (Jul 11, 12:00 PM)30.25 "Hg (Jul 11, 12:00 PM)
Low43 °F (Jul 14, 7:00 AM)30% (Jul 16, 7:00 PM)29.64 "Hg (Jul 22, 11:00 AM)
Average63 °F78%29.91 "Hg
* Reported Jul 11 10:00 AM — Jul 26 10:00 AM, Thunder Bay, Weather by CustomWeather, © 2014

Note: Actual official high and low records may vary slightly from our data, if they occured in-between our weather recording intervals... More about our weather records

Advertising

Thunder Bay weather history for previous 24 hours

 ConditionsComfort  
Time TempWeatherWind HumidityBarometerVisibility
10:00 AM
Jul 26
59 °FFog.2 mph100%29.72 "Hg1 mi
9:00 AM57 °FFog.2 mph100%29.71 "Hg1 mi
8:00 AM57 °FFog.3 mph100%29.70 "Hg1 mi
7:51 AM57 °FFog.6 mph100%29.70 "Hg1 mi
7:02 AM57 °FThunderstorms. Fog.3 mph100%29.70 "Hg2 mi
6:49 AM57 °FFog.3 mph100%29.71 "Hg4 mi
6:00 AM57 °FLow clouds.3 mph100%29.71 "Hg10 mi
5:00 AM59 °FPassing clouds.3 mph94%29.72 "Hg15 mi
4:00 AM59 °FPartly cloudy.3 mph94%29.74 "Hg15 mi
3:00 AM57 °FPassing clouds.No wind100%29.74 "Hg15 mi
2:00 AM57 °FPassing clouds.2 mph100%29.75 "Hg15 mi
1:00 AM57 °FPassing clouds.3 mph100%29.76 "Hg15 mi
12:00 AM57 °FPassing clouds.5 mph100%29.75 "Hg15 mi
11:00 PM
Jul 25
61 °FPassing clouds.3 mph94%29.75 "Hg15 mi
10:00 PM61 °FPartly sunny.5 mph100%29.75 "Hg20 mi
9:00 PM64 °FPartly sunny.5 mph94%29.75 "Hg20 mi
8:00 PM64 °FPartly sunny.3 mph94%29.76 "Hg20 mi
7:00 PM66 °FScattered showers. Broken clouds.7 mph94%29.77 "Hg15 mi
6:00 PM66 °FScattered showers. Broken clouds.9 mph94%29.73 "Hg15 mi
5:47 PM61 °FSprinkles. Broken clouds.10 mph100%29.74 "Hg15 mi
5:00 PM63 °FSprinkles. Cloudy.5 mph94%29.80 "Hg15 mi
4:00 PM63 °FSprinkles. Cloudy.2 mph88%29.79 "Hg15 mi
3:00 PM66 °FMostly cloudy.8 mph78%29.79 "Hg20 mi
2:00 PM70 °FBroken clouds.9 mph69%29.79 "Hg20 mi
1:00 PM70 °FBroken clouds.9 mph69%29.80 "Hg20 mi
12:00 PM68 °FBroken clouds.7 mph73%29.82 "Hg20 mi
11:00 AM70 °FScattered clouds.5 mph69%29.82 "Hg20 mi
Weather by CustomWeather, © 2014

See weather overviewHow to use our weather pages